Location: Roanoke
(37.2710°N, 79.9420°W)
Time: 16:49:02
(UTC-05:00)

S-56A Canister/Altair - Pass Details

Date: 27 November 2019
Orbit: 633 x 2499 km, 38.9° (Epoch: 07 December)

Event Time Altitude Azimuth Distance (km) Brightness Sun altitude
Rises 20:08:47 0° 288° (WNW) 4,765 12.5 -36.4°
Reaches altitude 10° 20:12:35 10° 282° (WNW) 3,460 11.6 -37.2°
Enters shadow 20:19:14 40° 236° (SW) 1,522 9.2 -38.5°
Maximum altitude 20:20:11 42° 215° (SW) 1,419 - -38.7°
Drops below altitude 10° 20:25:28 10° 145° (SE) 2,401 - -39.7°
Sets 20:27:41 0° 138° (SE) 3,184 - -40.2°
